Temp
9 9 9 9 9 8 9 8 7 7 6 6 6 6 6 6 6 6 6 6 7 7 7 7 8 7 7 7 5 7 8 9 9 10 11 12 13 14 15 13 13 14 12 11 10 11 11
9 9 9 10 9 8 9 9 8 7 6 6 6 6 6 6 6 5 6 6 6 6 6 6 7 8 7 5 5 8 8 9 10 10 11 12 13 13 12 11 14 11 12 11 11 11 11
10 10 9 10 9 8 8 8 8 8 7 7 7 7 6 6 5 6 5 7 6 6 6 6 5 5 5 6 8 9 10 10 10 11 12 13 13 13 12 12 10 11 13 13 12 11 12
10 10 10 10 10 9 9 9 8 8 8 7 7 7 8 7 6 6 6 6 7 7 6 6 6 8 7 7 9 9 10 11 11 12 13 13 13 13 11 10 12 14 15 16 12 12 11
10 10 10 10 10 10 9 9 9 8 9 9 8 7 8 8 7 7 7 6 6 6 7 8 8 8 8 9 9 10 11 11 11 12 12 13 13 10 11 14 15 14 14 15 13 11 12
10 10 10 10 10 10 9 9 9 9 9 9 9 8 8 8 9 8 8 8 7 8 8 8 9 9 9 8 9 10 10 11 12 12 13 13 12 14 14 15 15 15 13 13 14 12 12
10 10 10 10 10 10 10 9 9 9 9 10 10 9 9 9 9 10 9 9 8 7 8 7 7 7 8 9 10 10 11 12 12 11 13 9 14 11 11 12 14 15 15 14 12 10 11
10 10 10 10 10 10 11 10 10 9 10 10 10 10 10 10 10 10 10 9 8 8 8 8 8 9 8 10 10 11 12 11 11 11 11 12 11 9 9 11 13 14 14 13 11 10 11
10 10 10 10 10 10 11 11 10 10 10 10 10 10 10 10 11 11 10 9 9 9 10 9 8 8 8 9 8 8 10 9 10 10 11 12 9 9 10 11 13 11 14 12 12 11 10
10 10 9 9 10 9 10 11 11 10 10 10 10 10 10 10 10 10 10 10 10 9 9 8 9 9 8 9 9 9 9 9 9 9 9 9 9 10 10 10 11 13 10 10 10 13 14
10 10 10 9 9 9 9 10 11 11 11 10 10 10 10 10 9 9 9 9 9 9 10 8 9 9 9 9 8 9 9 9 9 8 10 8 9 10 10 9 10 10 9 9 9 11 8
10 10 10 10 10 9 9 10 10 11 11 11 10 10 10 9 9 8 8 9 9 11 8 7 8 8 10 9 9 9 9 9 8 10 10 8 7 9 9 8 9 8 9 9 9 10 11
11 10 10 10 10 10 10 10 10 11 11 11 10 10 10 9 9 8 8 8 9 8 7 8 8 9 9 9 10 9 9 9 10 9 8 9 9 8 8 10 9 10 11 11 12 11 14
11 11 10 10 10 11 10 10 11 11 11 11 11 10 10 10 9 9 9 9 9 6 7 8 8 9 9 9 9 9 9 9 8 9 8 9 9 9 9 9 10 9 10 11 13 14 14
11 11 11 11 11 11 11 11 11 11 12 12 11 11 10 10 10 9 9 7 7 8 9 8 9 10 10 9 9 10 9 9 8 8 10 10 9 8 8 9 9 9 10 9 8 7 9
11 11 11 11 11 11 12 12 12 12 12 12 11 11 10 10 10 9 8 6 7 6 7 8 10 9 10 10 10 10 9 8 8 8 8 8 9 8 8 8 8 9 9 9 9 11 12
11 12 11 11 11 11 12 12 12 12 13 12 12 11 11 11 11 9 7 7 7 6 7 8 9 9 10 10 10 10 10 9 9 8 8 9 10 8 9 9 10 8 9 9 9 10 11
10 11 11 11 12 12 12 12 12 13 13 13 13 10 11 11 9 7 8 8 7 7 6 8 8 9 10 9 10 9 10 10 8 8 9 9 10 10 10 8 8 9 10 10 11 9 10
10 10 11 11 11 12 12 12 12 13 13 13 12 12 12 12 10 8 6 7 7 7 8 8 8 8 8 9 10 9 9 7 7 8 9 9 9 10 9 9 8 8 9 9 9 9 10
10 10 10 11 11 11 12 12 12 12 13 13 12 8 11 10 6 9 8 8 8 6 7 7 8 8 8 9 8 9 9 8 6 7 7 8 8 9 13 11 10 9 8 8 10 9 12
8 9 10 10 10 11 11 11 12 12 13 13 11 6 6 8 8 7 7 8 8 8 6 6 8 8 9 9 9 9 9 8 6 6 7 8 8 6 8 8 8 8 9 8 8 10 10
6 7 8 9 10 10 10 11 11 12 12 12 10 8 6 4 4 7 6 8 8 8 8 8 8 8 8 9 10 10 9 9 10 6 8 6 8 6 6 8 7 7 8 8 9 9 9
5 6 6 7 8 8 9 9 10 10 11 10 9 8 7 3 5 7 7 7 7 7 7 7 7 8 8 8 7 8 8 7 8 8 8 7 8 7 9 7 7 9 10 9 8 8 9
4 5 6 6 6 7 8 9 9 9 9 9 8 8 8 9 6 7 6 6 7 7 7 6 6 7 6 7 7 6 5 5 5 6 6 7 7 7 7 7 10 11 8 9 9 9 9
4 4 4 6 6 6 6 7 8 8 7 8 8 8 7 8 5 6 5 6 5 5 6 6 6 6 6 6 8 8 7 6 4 3 4 5 8 8 7 7 10 9 7 7 8 12 10
4 5 4 4 4 6 5 4 5 6 6 6 7 7 7 6 8 6 6 5 7 7 6 5 5 5 5 6 7 8 10 9 7 4 2 4 5 8 5 6 10 11 9 7 8 12 9
4 4 4 4 4 5 5 4 4 4 5 5 6 6 6 5 6 6 6 7 6 4 6 4 4 4 5 6 7 8 8 6 8 7 4 4 5 6 7 7 9 10 8 6 11 12 9
4 4 4 4 4 4 5 4 4 4 4 4 5 5 5 5 6 6 6 6 5 5 7 5 6 4 4 6 6 7 6 7 6 7 6 6 5 5 6 6 6 8 6 10 11 9 8
4 4 4 4 4 4 5 5 4 4 5 5 5 5 4 4 5 6 5 5 5 5 5 5 4 4 5 5 4 5 6 5 7 9 4 6 8 8 8 9 9 6 8 8 8 7 6
Height
1533 1529 1526 1523 1520 1516 1515 1511 1507 1503 1498 1493 1488 1483 1476 1468 1460 1454 1452 1452 1452 1450 1451 1453 1456 1463 1466 1473 1478 1478 1480 1481 1482 1484 1489 1495 1498 1501 1503 1509 1514 1517 1525 1527 1527 1528 1529
1534 1530 1527 1524 1521 1517 1516 1513 1509 1506 1502 1497 1492 1486 1481 1475 1468 1464 1462 1460 1460 1459 1460 1460 1463 1464 1467 1475 1478 1481 1483 1483 1484 1487 1491 1497 1499 1503 1508 1512 1513 1523 1526 1529 1530 1530 1531
1535 1531 1527 1525 1523 1519 1516 1515 1512 1508 1505 1500 1495 1490 1486 1483 1476 1472 1469 1470 1468 1469 1470 1470 1472 1473 1476 1484 1481 1482 1485 1486 1489 1492 1492 1496 1500 1503 1509 1515 1523 1526 1527 1528 1532 1532 1532
1536 1533 1529 1525 1523 1520 1517 1515 1513 1510 1507 1503 1498 1493 1490 1488 1483 1479 1477 1477 1477 1476 1477 1479 1480 1479 1480 1486 1487 1488 1489 1490 1493 1495 1496 1499 1502 1504 1510 1518 1523 1523 1524 1523 1535 1534 1534
1538 1534 1532 1527 1524 1521 1518 1516 1514 1511 1508 1506 1502 1497 1492 1491 1490 1486 1484 1483 1483 1483 1484 1485 1486 1483 1489 1493 1493 1493 1494 1495 1497 1498 1500 1501 1504 1511 1515 1514 1517 1522 1527 1526 1533 1538 1537
1541 1537 1533 1530 1525 1523 1520 1516 1515 1513 1510 1508 1505 1501 1497 1494 1493 1491 1488 1488 1487 1487 1485 1484 1488 1489 1497 1499 1498 1497 1498 1499 1500 1501 1503 1504 1508 1512 1514 1511 1516 1520 1528 1532 1530 1538 1536
1543 1539 1535 1532 1528 1524 1522 1518 1515 1513 1511 1509 1507 1504 1500 1498 1496 1494 1491 1490 1491 1495 1489 1497 1501 1500 1503 1503 1502 1502 1503 1503 1502 1503 1505 1510 1507 1519 1522 1521 1517 1517 1520 1526 1535 1539 1536
1546 1542 1538 1534 1531 1526 1523 1521 1517 1514 1512 1510 1508 1506 1503 1502 1501 1500 1495 1491 1493 1499 1501 1501 1503 1503 1504 1504 1505 1505 1505 1506 1506 1509 1512 1513 1520 1529 1529 1525 1522 1522 1522 1529 1537 1539 1537
1548 1545 1541 1537 1533 1529 1524 1522 1520 1516 1514 1512 1509 1506 1505 1504 1502 1502 1500 1498 1498 1499 1501 1508 1508 1508 1510 1510 1511 1510 1510 1512 1514 1514 1513 1513 1531 1532 1529 1527 1524 1531 1526 1532 1535 1538 1540
1550 1546 1543 1540 1535 1531 1526 1522 1520 1518 1515 1513 1511 1508 1505 1504 1505 1502 1501 1500 1500 1500 1506 1520 1514 1516 1515 1513 1516 1517 1516 1518 1519 1523 1524 1528 1534 1532 1531 1533 1532 1527 1540 1540 1540 1534 1530
1552 1548 1544 1541 1537 1532 1528 1523 1520 1518 1516 1513 1511 1509 1506 1504 1504 1503 1504 1501 1501 1501 1510 1527 1523 1521 1519 1518 1523 1522 1519 1518 1522 1525 1526 1537 1535 1534 1534 1540 1537 1540 1543 1543 1543 1539 1547
1553 1549 1545 1542 1538 1534 1529 1525 1521 1518 1516 1514 1511 1509 1507 1505 1504 1504 1503 1502 1503 1505 1527 1531 1528 1526 1522 1523 1523 1523 1522 1522 1527 1527 1530 1538 1541 1541 1541 1543 1541 1544 1544 1544 1543 1541 1538
1553 1550 1546 1543 1539 1535 1531 1527 1522 1517 1515 1513 1512 1509 1506 1504 1504 1503 1503 1504 1505 1519 1540 1534 1530 1527 1526 1528 1527 1528 1529 1529 1529 1534 1538 1538 1541 1543 1543 1541 1544 1542 1539 1537 1535 1537 1520
1554 1551 1547 1544 1541 1537 1532 1528 1523 1518 1513 1512 1511 1510 1507 1504 1503 1502 1504 1506 1514 1538 1534 1534 1533 1530 1529 1531 1532 1532 1532 1532 1536 1534 1538 1538 1545 1543 1545 1543 1541 1544 1544 1540 1532 1524 1520
1554 1551 1548 1544 1542 1539 1534 1529 1523 1518 1513 1511 1511 1511 1508 1505 1503 1503 1506 1516 1529 1529 1530 1531 1531 1528 1531 1532 1532 1531 1535 1536 1539 1538 1533 1537 1541 1546 1546 1546 1547 1547 1544 1551 1551 1555 1542
1554 1552 1548 1544 1541 1539 1535 1531 1525 1519 1514 1511 1511 1510 1509 1506 1504 1504 1507 1527 1530 1534 1535 1534 1528 1532 1528 1530 1530 1530 1533 1537 1538 1539 1537 1540 1540 1547 1548 1548 1549 1547 1550 1547 1545 1539 1528
1553 1552 1549 1546 1542 1539 1535 1531 1526 1521 1516 1512 1511 1511 1511 1507 1506 1507 1520 1528 1532 1534 1535 1534 1533 1533 1532 1531 1533 1533 1534 1537 1537 1538 1538 1537 1535 1546 1546 1542 1539 1548 1544 1547 1545 1543 1532
1552 1550 1548 1546 1543 1540 1536 1532 1527 1522 1517 1513 1512 1512 1512 1509 1511 1520 1526 1530 1531 1533 1534 1535 1534 1534 1533 1535 1533 1534 1534 1536 1538 1539 1537 1539 1536 1537 1537 1543 1544 1543 1538 1538 1532 1541 1538
1552 1550 1548 1546 1544 1541 1538 1534 1529 1524 1519 1515 1515 1515 1514 1511 1517 1526 1531 1532 1533 1533 1533 1533 1533 1533 1535 1533 1533 1534 1534 1538 1539 1540 1540 1541 1538 1536 1539 1544 1545 1541 1538 1538 1540 1538 1534
1551 1549 1547 1545 1544 1541 1539 1536 1532 1527 1522 1519 1517 1519 1519 1517 1523 1525 1528 1530 1531 1532 1533 1534 1534 1535 1534 1534 1536 1533 1534 1537 1538 1539 1541 1542 1540 1534 1521 1528 1530 1533 1533 1535 1532 1533 1516
1549 1548 1547 1545 1543 1542 1539 1537 1534 1530 1527 1524 1522 1528 1528 1528 1527 1529 1530 1530 1530 1531 1533 1533 1533 1533 1532 1532 1533 1534 1537 1539 1540 1539 1539 1537 1534 1540 1533 1531 1532 1529 1526 1529 1528 1521 1518
1548 1547 1545 1544 1542 1541 1540 1537 1535 1532 1530 1528 1528 1530 1529 1530 1531 1529 1531 1531 1530 1531 1532 1532 1532 1530 1532 1531 1530 1530 1532 1534 1533 1540 1539 1540 1534 1538 1531 1524 1529 1526 1520 1521 1523 1521 1515
1545 1545 1544 1543 1541 1539 1538 1537 1535 1533 1532 1531 1532 1531 1531 1532 1531 1530 1530 1531 1531 1532 1531 1531 1531 1531 1531 1529 1529 1530 1532 1533 1533 1534 1537 1538 1535 1534 1521 1526 1522 1509 1502 1505 1508 1508 1507
1542 1542 1542 1542 1541 1539 1538 1536 1535 1534 1533 1533 1532 1532 1532 1530 1531 1531 1531 1531 1530 1530 1531 1531 1532 1531 1532 1531 1530 1529 1530 1531 1532 1533 1534 1535 1536 1536 1527 1524 1510 1493 1498 1498 1497 1496 1497
1539 1539 1539 1539 1539 1538 1537 1535 1534 1534 1534 1533 1532 1533 1533 1532 1533 1531 1531 1530 1529 1529 1529 1529 1529 1530 1530 1531 1529 1525 1525 1528 1532 1535 1534 1534 1531 1531 1530 1525 1498 1496 1499 1497 1495 1485 1488
1536 1536 1536 1536 1536 1535 1535 1535 1534 1533 1533 1533 1532 1531 1532 1533 1530 1531 1531 1530 1529 1528 1528 1527 1528 1528 1530 1529 1528 1522 1513 1515 1521 1532 1536 1536 1535 1529 1535 1527 1500 1488 1494 1496 1497 1483 1488
1530 1532 1532 1531 1531 1532 1532 1531 1532 1532 1532 1532 1531 1531 1531 1531 1528 1528 1529 1529 1529 1529 1528 1527 1527 1527 1528 1528 1526 1521 1515 1521 1512 1516 1530 1535 1534 1530 1526 1523 1500 1490 1495 1497 1491 1489 1488
1524 1526 1526 1526 1525 1525 1526 1528 1528 1529 1529 1530 1530 1530 1530 1528 1525 1524 1524 1524 1525 1527 1526 1528 1527 1526 1528 1527 1524 1520 1519 1516 1517 1514 1518 1518 1522 1525 1524 1525 1510 1490 1494 1491 1486 1486 1487
1519 1519 1519 1519 1520 1519 1520 1521 1523 1524 1525 1526 1527 1528 1527 1527 1524 1523 1521 1521 1520 1521 1523 1525 1524 1524 1523 1522 1524 1522 1519 1519 1513 1502 1515 1512 1502 1504 1503 1491 1487 1488 1485 1484 1484 1485 1482
Wind_Speed
19 20 20 18 17 15 16 20 25 28 30 30 29 33 33 36 37 28 23 26 27 27 28 26 21 20 21 16 9 13 16 18 22 23 22 21 21 12 9 9 9 11 6 8 8 9 8
20 19 20 20 16 14 12 16 20 25 28 30 27 29 33 38 27 29 27 26 27 28 31 29 22 15 22 10 11 13 17 19 21 24 25 19 12 13 11 7 6 9 13 9 8 7 7
23 20 19 20 18 14 12 12 17 21 24 29 27 26 25 32 25 24 23 24 27 28 28 25 26 29 32 12 14 19 16 17 20 21 24 19 20 5 9 11 10 9 9 6 11 6 4
23 22 20 20 20 17 14 11 12 17 21 23 26 28 30 28 25 26 24 22 22 21 22 22 28 31 23 18 17 17 16 18 18 19 21 17 12 19 6 15 5 4 3 5 5 8 3
25 23 20 20 21 20 17 13 11 11 16 21 24 29 32 22 25 26 23 22 18 15 13 13 22 20 11 16 19 16 16 22 20 17 19 16 13 9 6 11 7 3 5 4 3 6 5
28 24 22 19 20 22 20 17 13 12 12 14 17 19 21 31 20 19 26 28 23 11 6 12 14 14 15 13 17 17 17 19 20 19 14 8 6 6 5 5 6 9 5 3 3 3 3
28 27 24 21 17 19 21 19 16 13 11 10 10 11 16 23 26 11 14 19 16 24 37 22 14 14 13 17 18 13 11 11 9 11 6 6 8 9 6 4 5 9 8 6 2 2 4
26 28 26 24 21 18 18 19 19 16 12 8 6 7 8 13 19 21 30 29 21 16 18 27 26 24 22 15 12 13 8 6 8 7 1 6 10 5 4 5 9 7 8 4 2 1 3
25 26 27 26 24 20 16 15 16 17 15 11 7 7 6 4 6 8 18 19 15 15 8 16 19 22 16 18 12 15 9 6 10 11 10 10 5 2 5 7 9 7 3 3 2 3 1
23 25 26 26 26 25 20 15 12 12 14 14 12 10 7 3 2 3 5 2 2 4 4 14 13 13 14 4 7 18 8 3 6 8 7 8 4 4 6 6 4 4 3 3 2 3 3
20 22 24 25 25 25 25 20 14 10 8 12 14 14 10 6 2 3 1 3 2 1 5 15 8 8 13 7 2 12 12 10 7 5 1 3 4 5 5 3 4 4 2 3 1 1 2
17 19 21 23 24 25 25 24 18 13 10 7 11 14 12 6 3 1 1 2 3 1 5 5 6 8 5 12 6 6 7 11 4 9 15 5 2 3 3 5 6 9 3 2 1 1 2
15 17 19 21 23 24 26 26 23 16 11 8 6 14 13 10 4 2 1 2 2 6 2 4 4 5 5 7 6 7 5 7 4 3 3 2 3 2 1 4 3 1 1 1 2 2 3
14 15 17 19 22 24 26 27 27 22 12 7 5 7 17 12 7 3 1 0 9 1 2 0 2 2 5 6 5 5 2 3 7 4 3 2 3 1 2 4 2 3 2 2 3 2 2
12 14 16 19 22 24 25 27 28 26 16 7 4 4 19 12 8 3 1 7 3 3 3 4 1 3 3 3 2 2 5 2 3 4 2 2 3 2 4 3 3 3 1 2 1 2 3
14 14 15 17 19 22 24 25 27 28 19 10 5 2 21 12 9 5 6 5 2 1 1 1 1 1 2 2 1 2 2 1 3 1 2 3 4 2 2 2 5 1 4 2 1 3 4
13 14 14 15 18 20 22 24 26 27 25 11 6 2 19 12 7 9 5 4 3 2 1 2 1 2 2 2 3 1 2 2 3 4 1 3 1 3 2 6 6 4 3 2 1 2 3
15 14 14 15 16 18 20 22 24 26 27 15 4 3 16 9 6 5 3 3 3 3 1 2 1 1 1 2 2 1 1 4 2 3 2 1 1 3 2 2 2 3 3 6 4 4 3
15 17 16 16 17 17 19 21 23 25 26 18 4 4 11 8 3 3 3 3 0 3 3 3 2 2 1 2 2 2 2 1 4 1 0 2 2 2 2 2 2 5 8 6 1 0 8
14 15 16 16 15 17 19 20 22 23 23 17 5 3 8 11 8 3 4 3 3 2 2 1 1 2 2 2 2 3 4 2 5 3 2 2 2 5 2 3 1 4 8 12 11 5 6
12 13 15 17 17 15 17 19 20 21 20 15 8 3 4 3 6 5 2 2 3 3 1 3 2 5 3 3 3 3 2 2 2 4 4 5 4 2 8 10 9 12 14 13 19 18 10
10 11 13 15 16 16 16 16 18 19 18 11 5 3 3 2 2 1 2 0 2 1 3 2 4 3 6 3 3 3 5 4 3 4 4 2 2 1 5 4 5 10 14 17 19 21 22
9 9 10 11 14 16 15 14 15 16 16 8 9 7 2 1 1 1 1 1 1 1 1 1 3 2 5 8 7 4 5 2 1 3 7 3 3 1 5 2 10 10 8 12 10 10 15
13 11 9 9 10 12 14 12 12 12 12 9 8 6 4 1 1 1 1 2 2 2 2 1 3 2 2 1 5 4 1 1 4 7 3 4 3 2 4 7 4 4 2 4 13 9 16
13 13 13 11 9 9 12 12 9 9 8 7 6 5 3 3 2 4 4 4 3 4 3 4 5 5 3 2 3 4 2 3 2 3 5 3 5 3 3 4 10 2 3 6 7 2 6
18 17 14 13 12 10 9 10 11 7 6 6 4 5 2 2 2 2 1 1 2 2 2 2 3 3 4 2 2 3 3 0 3 3 5 4 2 6 2 4 4 2 2 2 3 4 4
19 20 21 19 16 14 13 12 11 9 7 6 5 4 2 3 5 5 3 2 2 1 2 1 2 3 5 2 3 4 3 1 3 4 5 4 5 12 8 5 9 6 5 2 3 3 2
19 21 22 21 18 16 16 17 15 13 11 8 7 6 4 4 11 11 8 8 6 4 2 2 2 2 2 4 3 3 3 2 2 3 5 7 8 5 6 5 8 9 6 5 3 11 11
19 21 19 17 16 16 15 16 18 18 16 13 14 10 10 9 8 16 19 20 20 17 8 7 2 1 5 2 2 1 3 3 3 2 2 5 6 5 10 6 2 6 10 5 10 17 14
Wind_Direction
23 21 22 30 15 14 38 34 34 33 32 31 31 27 31 27 53 59 79 87 92 100 103 106 124 130 126 90 80 131 139 143 145 147 147 149 149 137 114 110 98 96 107 75 94 99 87
26 26 20 29 22 10 28 31 27 29 32 36 34 31 38 37 60 64 75 82 99 109 101 92 110 106 101 55 58 125 135 134 145 148 146 147 143 124 96 73 57 110 108 101 74 82 71
25 28 24 23 28 15 6 25 26 31 33 40 43 31 23 25 55 64 78 84 93 107 94 108 116 108 80 69 85 116 117 130 141 142 140 139 137 128 118 105 113 116 103 100 37 10 54
26 25 25 26 27 18 10 9 14 28 32 34 33 38 34 40 66 70 81 88 108 102 111 101 103 90 77 71 99 111 112 124 137 137 135 127 126 111 86 118 89 104 123 146 25 355 356
24 25 24 27 28 28 15 13 6 1 20 25 32 53 52 43 53 69 68 72 94 107 100 104 98 87 55 81 91 95 108 119 135 132 117 113 116 88 114 128 118 54 141 126 126 26 318
26 24 23 23 27 32 26 15 19 10 20 25 35 52 36 48 70 80 73 68 69 82 91 65 72 75 51 39 68 90 106 113 114 115 108 78 74 111 118 166 165 149 133 134 150 21 316
28 26 23 20 24 26 31 25 20 24 27 53 31 37 35 48 53 86 95 88 68 51 63 78 67 86 59 73 70 82 92 94 76 67 95 30 119 99 72 38 86 124 128 139 122 50 308
30 26 25 23 19 25 25 28 24 28 29 37 40 14 23 51 73 71 87 86 91 108 72 49 58 57 55 66 59 60 78 54 49 76 102 98 80 53 80 93 103 113 131 95 112 7 306
30 28 25 25 20 21 24 20 26 25 30 27 11 357 351 13 80 96 84 90 96 92 71 31 31 31 26 56 43 25 52 57 50 62 64 81 78 60 99 92 105 62 83 110 16 323 278
28 28 25 23 24 16 21 21 16 26 23 21 19 5 355 358 63 70 93 109 88 95 78 2 4 18 4 68 54 30 42 69 59 78 62 64 36 85 86 72 350 113 57 84 34 305 274
25 28 24 21 20 21 16 19 14 9 26 23 14 17 6 21 49 49 78 82 85 82 64 337 346 359 23 65 348 21 34 55 68 54 280 69 68 65 68 32 349 98 93 72 52 50 338
22 23 23 18 16 18 19 15 17 8 0 11 17 13 12 17 19 23 216 131 99 69 56 354 337 359 42 35 33 20 45 69 107 68 71 83 51 28 73 66 70 130 120 109 123 317 259
11 19 18 15 10 13 14 15 12 15 4 0 22 26 15 17 2 336 23 133 68 60 329 360 349 356 55 33 43 28 33 45 40 94 39 78 49 66 58 111 110 137 207 264 227 209 277
3 9 11 11 8 8 9 11 10 6 4 358 354 3 17 23 21 57 36 133 66 217 203 130 308 352 57 15 50 31 81 64 48 28 125 137 165 87 17 28 16 58 320 297 276 266 332
359 360 3 7 7 5 5 7 8 7 4 13 8 28 15 22 39 71 100 53 105 183 142 167 123 65 66 39 37 75 52 64 44 18 41 129 91 59 44 34 343 104 247 18 360 134 274
353 357 358 0 2 1 1 6 8 7 10 10 15 44 14 12 28 69 71 100 72 96 60 335 109 266 128 54 64 52 37 107 135 164 294 143 121 52 100 153 68 333 123 195 166 304 281
348 349 356 356 356 357 359 3 6 10 9 8 17 57 4 11 39 57 75 82 122 167 98 3 103 115 90 72 16 76 136 145 209 154 146 159 269 128 208 204 184 162 195 182 340 252 284
337 347 353 356 354 353 355 1 6 10 9 11 17 38 359 23 44 43 59 88 134 151 156 140 124 72 139 148 137 147 313 355 148 167 169 97 161 175 169 96 320 269 238 200 243 189 226
335 341 349 355 354 354 353 359 5 8 9 11 21 18 11 31 78 78 113 100 94 153 191 174 160 193 172 168 165 167 160 93 162 176 81 165 231 182 179 165 180 230 201 211 145 338 215
323 333 342 351 1 356 355 357 3 9 9 8 16 15 26 54 62 90 141 142 150 174 165 185 131 158 163 182 255 186 195 158 169 174 121 157 265 269 317 56 83 209 204 207 209 215 242
324 332 334 339 350 3 358 357 360 6 8 11 23 66 32 358 39 61 4 143 145 195 234 194 187 231 204 184 186 229 219 165 192 190 157 193 222 220 272 266 254 261 256 217 214 226 242
317 328 333 338 344 355 358 356 358 2 8 18 37 5 31 76 358 12 15 175 226 155 191 208 236 174 201 228 252 195 177 211 227 181 201 207 257 260 273 245 236 261 256 245 247 249 258
301 310 323 335 341 346 354 357 358 4 12 35 19 12 3 342 30 300 68 101 1 355 186 280 251 231 228 253 243 237 234 282 234 194 198 214 228 285 271 296 300 269 241 214 211 221 233
298 294 298 311 326 334 341 352 358 3 17 30 25 8 357 328 290 289 198 211 213 197 259 320 220 226 342 329 312 279 213 195 211 213 199 177 194 252 286 312 246 100 177 222 201 231 216
272 285 299 293 294 312 327 335 350 353 6 13 17 23 5 304 298 279 244 240 262 242 227 234 230 234 224 309 275 279 194 188 96 49 224 207 199 249 275 281 304 159 188 171 198 167 196
266 269 276 281 288 284 290 308 322 342 348 353 1 8 2 312 226 254 290 257 297 273 244 218 226 207 212 191 208 248 255 353 174 147 31 181 261 224 189 263 253 80 137 185 241 190 155
263 267 269 272 267 265 275 280 288 298 309 317 320 340 334 263 263 203 202 229 219 247 270 260 189 176 174 200 220 228 246 322 227 190 162 151 200 217 229 270 281 253 151 164 267 41 272
268 275 266 262 258 257 258 265 266 262 268 285 291 294 290 247 275 256 234 210 207 207 251 154 236 188 127 213 219 224 228 207 256 158 180 181 168 192 198 228 269 165 115 212 37 325 308
270 272 263 255 252 254 254 255 252 254 245 254 269 278 277 270 268 284 271 261 257 244 236 214 282 213 213 184 231 243 228 200 228 250 200 229 212 189 206 224 9 198 250 247 312 304 307